Location: Losili
(4.4086°N, 32.7049°E)
Time: 04:26:17
(UTC+00:00)

Cosmos 1269 Rocket - Pass Details

Date: 18 September 2019
Orbit: 772 x 780 km, 74.1° (Epoch: 15 October)

Event Time Altitude Azimuth Distance (km) Brightness Sun altitude
Rises 16:25:05 0° 349° (NNW) 3,247 7.4 -10.3°
Reaches altitude 10° 16:27:28 10° 349° (N) 2,322 6.7 -10.8°
Maximum altitude 16:32:45 84° 77° (ENE) 785 4.0 -12.2°
Drops below altitude 10° 16:38:03 10° 166° (SSE) 2,328 6.3 -13.5°
Sets 16:40:26 0° 167° (SSE) 3,256 7.1 -14.1°
